AirNav   Air Wisconsin Up To $57,000 Bonus
 
 1091 users online  

N85 Alexandria Airport
Pittstown, New Jersey, USA

GOING TO PITTSTOWN?


FAA INFORMATION EFFECTIVE 16 JUNE 2022

Location

FAA Identifier: N85
Lat/Long: 40-35-15.2660N 075-01-09.9140W
40-35.254433N 075-01.165233W
40.5875739,-75.0194206
(estimated)
Elevation: 480 ft. / 146.3 m (surveyed)
Variation: 10W (1965)
From city: 2 miles W of PITTSTOWN, NJ
Time zone: UTC -4 (UTC -5 during Standard Time)
Zip code: 08848

Airport Operations

Airport use: Open to the public
Activation date: 09/1945
Control tower: no
ARTCC: NEW YORK CENTER
FSS: MILLVILLE FLIGHT SERVICE STATION
NOTAMs facility: MIV (NOTAM-D service available)
Attendance: 0800-DUSK
Wind indicator: lighted
Segmented circle: no
Lights: ACTVT MIRL RY 08/26 - 121.8.
Beacon: white-green (lighted land airport)
ACTIVATE ROTG BCN - 121.8.

Airport Communications

CTAF/UNICOM: 122.975
ALLENTOWN APPROACH: 119.65 ;3000 FT & BLW 124.45 ;ABV 3000 FT
ALLENTOWN DEPARTURE: 119.65 ;3000 FT & BLW 124.45 ;ABV 3000 FT
IC: 119.65 ;3000 FT & BLW 124.45 ;ABV 3000 FT
WX AWOS-3 at N40 (2.2 nm SE): 121.725
WX ASOS at DYL (16 nm S): 118.875 (215-345-0392)
WX ASOS at SMQ (16 nm E): 120.6 (908-722-2139)
WX AWOS-3 at CKZ (17 nm SW): 126.325 (215-257-7291)
WX AWOS-3 at UKT (19 nm SW): 119.475 (215-538-7610)
WX ASOS at ABE (20 nm W): 126.975 (610-264-1765)

Airport Services

Fuel available: 100LL JET-A
100LL:24 HR SELF-SERVICE
Parking: hangars and tiedowns
Airframe service: MAJOR
Powerplant service: MAJOR
Bottled oxygen: NONE
Bulk oxygen: NONE

Runway Information

Runway 8/26

Dimensions: 2550 x 60 ft. / 777 x 18 m
Surface: asphalt, in good condition
Runway edge lights: medium intensity
RUNWAY 8  RUNWAY 26
Latitude: 40-35.141883N40-35.322867N
Longitude: 075-01.407300W075-00.910250W
Elevation: 463.0 ft.480.0 ft.
Traffic pattern: leftleft
Runway heading: 074 magnetic, 064 true254 magnetic, 244 true
Markings: nonprecision, in good conditionnonprecision, in good condition
Visual slope indicator: 2-light PAPI on right (4.00 degrees glide path)2-light PAPI on left (3.75 degrees glide path)
PAPI UNUSBL BYD 2 DEGS LEFT OF CNTRLN.
Touchdown point: yes, no lightsyes, no lights
Obstructions: 50 ft. tree, 481 ft. from runway, 102 ft. left of centerline, 5:1 slope to clear71 ft. tree, 232 ft. from runway, 208 ft. left of centerline
+33 FT TREE, 58 FT FM RWY END, 108 FT L.

Runway 13/31

Dimensions: 1804 x 100 ft. / 550 x 30 m
Surface: asphalt/turf, in good condition
25 FT WIDE ASPH STRIP FULL LENGTH DOWN CENTER OF RWY. TURF PORTION OF RWY UNUSABLE.
RUNWAY 13  RUNWAY 31
Latitude: 40-35.352633N40-35.215417N
Longitude: 075-01.345033W075-00.999450W
Elevation: 444.0 ft.458.7 ft.
Traffic pattern: leftleft
Runway heading: 128 magnetic, 118 true308 magnetic, 298 true
Markings: numbers only, in fair conditionnumbers only, in fair condition
Touchdown point: yes, no lightsyes, no lights
Obstructions: 16 ft. tree, 433 ft. from runway, 95 ft. left of centerline, 14:1 slope to clear64 ft. tree, 666 ft. from runway, 142 ft. left of centerline, 7:1 slope to clear
+47 FT TREE, 112 FT FM RWY END, 117 FT L.

Airport Ownership and Management from official FAA records

Ownership: Privately-owned
Owner: ALEXANDRIA AIRPARK, LLC
63 AIRPORT ROAD
PITTSTOWN, NJ 08867
Phone 908-730-9223
Manager: W. FRITSCHE - L. CASTNER
63 AIRPORT ROAD
PITTSTOWN, NJ 08867
Phone 908-730-9223

Airport Operational Statistics

Aircraft based on the field: 84
Single engine airplanes: 80
Multi engine airplanes: 1
Helicopters: 1
Ultralights: 2
    
Aircraft operations: avg 50/day *
60% local general aviation
40% transient general aviation
* for 12-month period ending 02 March 2021

Additional Remarks

TAXI ON PAVEMENT ONLY.
HEL TKOF AND LDGS RSTRD TO RWY 08/26 ONLY.
HEL USE FIXED-WING TFC PAT AND ALTS.
CTC ARPT MGR 908-730-9223 PRIOR TO CONDUCTING HEL TRNG ACT.
NO TGL OR STA ALLOWED.
FOR CD CTC ALLENTOWN APCH AT 800-728-6322.

Instrument Procedures

NOTE: All procedures below are presented as PDF files. If you need a reader for these files, you should download the free Adobe Reader.

NOT FOR NAVIGATION. Please procure official charts for flight.
FAA instrument procedures published for use from 16 June 2022 at 0901Z to 14 July 2022 at 0900z.

 
IAPs - Instrument Approach Procedures
RNAV (GPS)-A   download (214KB)
RNAV (GPS)-B   download (196KB)
VOR/DME RWY 08   download (180KB)
NOTE: Special Take-Off Minimums/Departure Procedures apply   download (437KB)

Other nearby airports with instrument procedures:

N40 - Sky Manor Airport (2 nm SE)
N51 - Solberg-Hunterdon Airport (13 nm E)
N43 - Braden Airpark (14 nm NW)
KDYL - Doylestown Airport (16 nm S)
KSMQ - Somerset Airport (16 nm E)
KCKZ - Pennridge Airport (17 nm SW)
KUKT - Quakertown Airport (19 nm SW)
KABE - Lehigh Valley International Airport (20 nm W)
47N - Central Jersey Regional Airport (20 nm E)
39N - Princeton Airport (20 nm SE)
 
Loc | Ops | Rwys | IFR | FBO | Links
Com | Nav | Svcs | Stats | Notes
Area around N85 (Alexandria Airport)
 
Road maps at: MapQuest Bing Google
 
Aerial photo
WARNING: Photo may not be current or correct
Aerial photo of N85 (Alexandria Airport)
Taken in the Fall of 2011
looking southwest.

Do you have a better or more recent aerial photo of Alexandria Airport that you would like to share? If so, please send us your photo.

 
Sectional chart

 
Airport diagram
CAUTION: Diagram may not be current
Diagram of N85 (Alexandria Airport)
 
Airport distance calculator
Flying to Alexandria Airport? Find the distance to fly.

From to N85

Sunrise and sunset
Times for 26-Jun-2022
 Local
(UTC-4)
 Zulu
(UTC)
Morning civil twilight04:5908:59
Sunrise05:3209:32
Sunset20:3400:34
Evening civil twilight21:0701:07

Current date and time
Zulu (UTC)  26-Jun-2022 21:11:14
Local (UTC-4)  26-Jun-2022 17:11:14
 
METAR
KDYL 
16nm S 
262054Z AUTO 17009G15KT 10SM CLR 30/17 A3001 RMK AO2 SLP155 T03000167 56019
KSMQ 
16nm E 
ASOS 120.60 908-722-2139
262053Z AUTO VRB05KT 10SM FEW060 32/18 A2998 RMK AO2 SLP150 T03170183 56020
KCKZ 
17nm SW 
262055Z AUTO 20006KT 10SM SCT048 30/19 A3003 RMK AO2
KUKT 
19nm SW 
262055Z AUTO 20009KT 10SM FEW049 30/20 A3002 RMK A01
KABE 
20nm W 
262051Z 21010G16KT 10SM BKN050 30/19 A3000 RMK AO2 SLP155 T03000189 56019
KTTN 
20nm SE 
ASOS 133.70 609-538-8690
262053Z 20009KT 10SM CLR 31/16 A3000 RMK AO2 SLP150 T03060156 56020 $
KXLL 
21nm W 
262055Z AUTO 19010G16KT 10SM BKN050 30/20 A3001 RMK AO2
K12N 
29nm NE 
262054Z AUTO VRB06KT 31/18 A3001 RMK AO1 SLP152 T03060178 56019
KLOM 
29nm SW 
262055Z AUTO 21012G17KT 10SM CLR 31/19 A3002 RMK AO2 T03080187
KMMU 
30nm NE 
262045Z 18007G15KT 10SM SCT060 32/18 A3000
TAF
KABE 
20nm W 
261727Z 2618/2718 20010G18KT P6SM FEW040 SCT250 FM270000 20007KT P6SM FEW045 SCT140 FM270100 19006KT P6SM VCTS SCT040CB BKN070 FM270600 18006KT 6SM -SHRA VCTS SCT040CB BKN060 FM271100 21006KT 5SM -SHRA SCT008 OVC015 FM271700 29006KT P6SM SCT090 BKN130
KTTN 
20nm SE 
261727Z 2618/2718 21007KT P6SM SCT250 FM270000 18008KT P6SM FEW040 SCT250 FM270800 20007KT P6SM VCSH SCT010 BKN040 FM271200 22008KT 5SM -SHRA SCT008 OVC015 FM271700 25007KT 6SM -SHRA VCTS SCT010CB OVC015
NOTAMs
Click for the latest NOTAMs
NOTAMs are issued by the DoD/FAA and will open in a separate window not controlled by AirNav.

 

 
 

FBO, Fuel Providers, and Aircraft Ground Support

  
 Business Name 
 
 Contact 
 
 Services / Description 
 
Fuel Prices
 
Comments
  
 Alexandria Field
UNICOM 122.975
908-730-9223
[web site]
[email]
Airport management, Aviation fuel, Flight training, Aircraft rental, Aircraft maintenance, Pilot supplies, ...

More info about Alexandria Field
Phillips 66
100LL
SS $6.39 
 Updated 10-May-2022
 
   write
SS=Self service
Update Fuel Prices
 

Would you like to see your business listed on this page?

 If your business provides an interesting product or service to pilots, flight crews, aircraft, or users of the Alexandria Airport, you should consider listing it here.  To start the listing process, click on the button below
 
Add a business
 

Other Pages about Alexandria Airport

www.alexandriafield.com
 
Update a link
 
Copyright © AirNav, LLC. All rights reserved. Privacy Policy  Contact